Flag for Spain Weather past 2 weeks in Santa Cruz de Tenerife, Canary Islands, Spain

Now
59 °F

Clear.


Feels Like: 58 °F
Forecast: N/A
Wind: 7 mph from Southeast

Location: Tenerife / Los Rodeos

Current Time: Dec 25, 2014 at 9:27:07 PM

Latest Report: Dec 25, 2014 at 9:00 PM


Visibility: 10 mi

Pressure: 30.36 "Hg

Humidity: 59%

Dew point: 45 °F

Location of Santa Cruz de TenerifeLocation

Historic Weather in Santa Cruz de Tenerife — Graph

°F

Santa Cruz de Tenerife temperature yesterday

Maximum temperature yesterday: 59 °F (at 10:30 AM)
Minimum temperature yesterday: 55 °F (at 6:00 AM)
Average temperature yesterday: 57 °F

Past Weeks' High & Low Weather Summary

 TemperatureHumidityPressure
High66 °F (Dec 25, 12:00 PM)100% (Dec 10, 10:00 PM)30.42 "Hg (Dec 10, 10:00 PM)
Low50 °F (Dec 13, 11:00 PM)30% (Dec 25, 8:00 AM)30.12 "Hg (Dec 13, 3:00 PM)
Average57 °F86%30.29 "Hg
* Reported Dec 10 8:00 PM — Dec 25 8:00 PM, Santa Cruz de Tenerife, Weather by CustomWeather, © 2014

Note: Actual official high and low records may vary slightly from our data, if they occured in-between our weather recording intervals... More about our weather records

Advertising

Santa Cruz de Tenerife weather history for previous 24 hours

 ConditionsComfort  
Time TempWeatherWind HumidityBarometerVisibility
8:00 PM
Dec 25
57 °FPassing clouds.8 mph72%30.36 "HgN/A
7:30 PM57 °FClear.8 mph82%30.36 "Hg10 mi
7:00 PM57 °FClear.9 mph94%30.33 "Hg10 mi
6:30 PM57 °FPassing clouds.9 mph94%30.33 "HgN/A
6:00 PM59 °FPassing clouds.9 mph82%30.33 "HgN/A
5:30 PM59 °FSunny.9 mph88%30.30 "Hg10 mi
5:00 PM59 °FPassing clouds.9 mph82%30.30 "HgN/A
4:30 PM61 °FSunny.12 mph83%30.30 "Hg10 mi
4:00 PM63 °FPassing clouds.12 mph73%30.30 "HgN/A
3:30 PM63 °FSunny.12 mph77%30.30 "Hg10 mi
3:00 PM64 °FPassing clouds.12 mph68%30.30 "HgN/A
2:30 PM64 °FPassing clouds.12 mph68%30.30 "HgN/A
2:00 PM64 °FPassing clouds.12 mph73%30.30 "HgN/A
1:30 PM64 °FSunny.15 mph73%30.33 "Hg10 mi
1:00 PM64 °FClear.14 mph73%30.33 "Hg6 mi
12:30 PM64 °FClear.12 mph68%30.33 "Hg6 mi
12:00 PM66 °FClear.12 mph64%30.36 "Hg6 mi
11:30 AM64 °FClear.12 mph73%30.36 "Hg6 mi
11:00 AM64 °FClear.10 mph68%30.33 "Hg6 mi
10:30 AM63 °FClear.10 mph77%30.33 "Hg6 mi
10:00 AM61 °FClear.12 mph88%30.33 "Hg6 mi
9:30 AM59 °FClear.10 mph88%30.33 "Hg5 mi
9:00 AM59 °FClear.10 mph68%30.30 "Hg4 mi
8:30 AM63 °FHaze.12 mph32%30.27 "Hg3 mi
8:00 AM63 °FClear.10 mph30%30.27 "Hg4 mi
7:30 AM61 °FClear.10 mph34%30.27 "Hg4 mi
7:00 AM57 °FClear.7 mph77%30.27 "Hg6 mi
6:30 AM57 °FClear.10 mph82%30.27 "Hg5 mi
6:00 AM59 °FClear.10 mph59%30.24 "Hg4 mi
11:00 PM
Dec 24
57 °FClear.9 mph77%30.24 "Hg4 mi
10:30 PM55 °FClear.9 mph77%30.24 "Hg4 mi
10:00 PM55 °FClear.9 mph72%30.24 "Hg4 mi
9:30 PM55 °FClear.9 mph72%30.24 "Hg4 mi
9:00 PM55 °FClear.8 mph77%30.21 "Hg4 mi
Weather by CustomWeather, © 2014

See weather overviewHow to use our weather pages